Погода в Львовском

Россия / Калининградская область     54°24′10″N   21°57′12″E
темп.,
°C
ветер,
м/с
пор.,
м/с
влажн.,
%
обл.,
%
осадки,
мм/ч
давл.,
гПа
погр.,
м
26 октября, вт
вт2623:00+6ю51367100 0.0 1020310
02:00+5ююз41072100 0.0 1019236
05:00+5ююз4973100 0.0 1018208
08:00+5ююз41073100 0.0 1017238
11:00+8юз51062100 0.0 1017404
14:00+11юз595893 0.0 1016595
17:00+9юз51165100 0.0 1016403
20:00+8зюз51188100 1.0 1016514
27 октября, ср
ср2723:00+9зюз6129087 2.1 1017725
02:00+8зюз5119133 2.1 1018630
05:00+7зюз512958 0.0 1018358
08:00+6юз41196100 0.0 1018302
11:00+10юз61282100 0.0 1018519
14:00+11юз61279100 0.0 1017728
17:00+11юз61385100 0.1 1017589
20:00+11юз61488100 0.1 1017718
28 октября, чт
чт2823:00+11зюз71487100 0.0 10171033
02:00+12зюз71486100 0.2 1017903
05:00+12з61388100 0.1 1018881
08:00+12з51189100 0.1 1020682
11:00+12з51088100 0.0 1021570
14:00+13з4885100 0.0 1022504
17:00+13зюз228880 0.0 102332
20:00+11юз229229 0.0 102419
29 октября, пт
пт2923:00+10ююз349332 0.0 102463
02:00+9ю369318 0.0 1024115
05:00+8ю399478 0.0 1024163
08:00+8ююв4119221 0.0 1024225
11:00+13ю613715 0.0 1023469
14:00+15ю614645 0.0 1021619
17:00+13ююв6157185 0.0 1020527
20:00+12ю71679100 0.0 1020531
30 октября, сб
сб3023:00+12ю6158099 0.0 1020451
02:00+10ююв5148259 0.0 1018400
05:00+9ю512792 0.0 1017319
08:00+8ю512785 0.0 1017278
11:00+12ююз6135459 0.0 1017616
14:00+14ююз61150100 0.0 1017698
17:00+11ююз51158100 0.0 1018338
20:00+10ююз51164100 0.0 1018255